This is the latest recevied weather packets stored in our database for station/object IZ1UQG-1. If no packets are shown the sender has not sent any weather packets the latest 10 day(s).
| Time | Temp. | Humidity | Pressure | Rain* | Wind** | Luminosity | Snow |
|---|---|---|---|---|---|---|---|
| 1777740841 | 26.67° C | 35% | 1018.3 hPa | 222 mm | - | - | - |
| 1777740541 | 26.67° C | 35% | 1018.3 hPa | 219.46 mm | - | - | - |
| 1777740241 | 26.67° C | 35% | 1018.3 hPa | 224.79 mm | - | - | - |
| 1777739941 | 26.67° C | 34% | 1018.3 hPa | 213.87 mm | - | - | - |
| 1777739641 | 26.67° C | 34% | 1018.3 hPa | 244.86 mm | - | - | - |
| 1777739341 | 26.67° C | 36% | 1018.3 hPa | 226.31 mm | - | - | - |
| 1777739041 | 26.67° C | 36% | 1018.4 hPa | 227.33 mm | - | - | - |
| 1777738741 | 26.67° C | 36% | 1018.5 hPa | 210.82 mm | - | - | - |
| 1777738441 | 26.67° C | 36% | 1018.4 hPa | 209.04 mm | - | - | - |
| 1777738141 | 26.67° C | 36% | 1018.4 hPa | 205.99 mm | - | - | - |
| 1777737841 | 27.22° C | 35% | 1018.6 hPa | 177.04 mm | - | - | - |
| 1777737541 | 27.22° C | 36% | 1018.6 hPa | 183.64 mm | - | - | - |
| 1777737241 | 27.22° C | 36% | 1018.6 hPa | 177.04 mm | - | - | - |
| 1777736941 | 27.22° C | 36% | 1018.6 hPa | 169.67 mm | - | - | - |
| 1777736641 | 26.67° C | 37% | 1018.6 hPa | 159.51 mm | - | - | - |
| 1777736341 | 26.67° C | 37% | 1018.6 hPa | 146.56 mm | - | - | - |
| 1777736041 | 26.67° C | 38% | 1018.8 hPa | 133.6 mm | - | - | - |
| 1777735741 | 26.67° C | 38% | 1018.8 hPa | 127.76 mm | - | - | - |
| 1777735441 | 26.67° C | 38% | 1018.9 hPa | 126.75 mm | - | - | - |
| 1777735141 | 26.67° C | 38% | 1018.9 hPa | 126.75 mm | - | - | - |
| 1777734841 | 26.67° C | 38% | 1018.7 hPa | 139.7 mm | - | - | - |
| 1777734541 | 26.67° C | 38% | 1018.8 hPa | 137.67 mm | - | - | - |
| 1777734241 | 26.67° C | 38% | 1018.7 hPa | 139.7 mm | - | - | - |
| 1777733941 | 26.67° C | 39% | 1018.8 hPa | 153.16 mm | - | - | - |
| 1777733641 | 26.67° C | 39% | 1018.9 hPa | 150.62 mm | - | - | - |
* Rain latest hour (hover to see other rain measurements)
** Current wind speed in m/s (hover to see current wind gust speed)